星链-32863 (STARLINK-32863)

导读

STARLINK-32863是美国SpaceX公司星链星座的卫星,于2025年2月11日发射。它属于星链低轨宽带互联网星座,星链旨在为全球提供高速低延迟互联网服务,截至2025年,SpaceX已发射超9400颗星链卫星,该卫星采用相控阵天线、激光星间链路等先进技术,可提供高速通信,助力全球无缝网络覆盖,支持包括手机直连在内的多场景网络服务。

基本信息
目录编号:
62968
目录名称:
STARLINK-32863
国际标识:
2025-029W
轨道中心:
EARTH
卫星名称:
星链-32863
卫星全名:
星链-32863 (STARLINK-32863)
卫星状态:
在轨 (已飞行488 天)
发射日期:
2025-02-11 UTC
国别 :
美国 (US)
星等 :
--
轨道信息
数据来源 国际轨道数据
星历时间: 2026-06-13T23:22:50+0800
16小时前
查看轨道信息
半长轴: 6848.811km
偏心率: 0.0000951
轨道倾角: 53.156°
近地点辐角 103.975°
升交点赤经 146.386°
平近点角 256.136°
近地点: 470.022km
远地点: 471.326km
周期: 94.012分钟
每日圈数: 15.317223
详细信息
固有亮度:
5
最大亮度:
2.5
卫星平台:
Starlink V1.0
覆盖范围:
全球
运营商:
太空探索技术公司
运营商所在国:
美国
制造商(研发单位):
太空探索技术公司
制造商所在国:
美国
使用方式:
暂无
卫星简介
Starlink 计划是 SpaceX 推出的全球卫星互联网项目,通过发射低轨道卫星,为全球尤其是偏远地区提供高速、低延迟的互联网服务。自 2019 年起,Starlink 已部署数千颗卫星,旨在缩小全球数字鸿沟,推动互联网普及。该项目还为军事、航空等行业提供通信支持,带来广泛经济效益。
2D轨道图
3D轨道图
轨道高度分析图
轨道倾角分析图
轨道综合分析图
查看轨道综合分析图